This demonstration page uses our WeatherBlox Daily Observations layout. Learn more.

Left ArrowRight Arrow

39.08367, -84.50855

Hourly Observations for December 1, 2021

Temp ( °F °C ) Dew Point ( °F °C ) Humidity (%) Winds ( mph kmh ) Pressure ( in mb ) Visibility ( mi km ) Precip ( " mm )
12:53 am 00:53 Clear with Mist and Fog 28 -2.2 28 -2.2 100 100 N N/A 30.17 1022 6 10 N/A
1:53 am 01:53 Clear with Mist and Fog 28 -2.2 28 -2.2 100 100 N N/A 30.16 1021 2 2 N/A
2:08 am 02:08 Clear with Mist and Fog 28 -2.2 28 -2.2 100 100 N N/A 30.19 1022 3 5 N/A
2:14 am 02:14 Clear with Mist and Fog 28 -2.2 28 -2.2 100 100 N N/A 30.18 1022 2 3 N/A
2:24 am 02:24 Clear with Mist and Fog 28 -2.2 28 -2.2 100 100 N N/A 30.19 1022 3 5 N/A
2:53 am 02:53 Clear 27 -2.8 27 -2.8 100 100 N N/A 30.16 1022 8 13 N/A
3:53 am 03:53 Clear 28 -2.2 28 -2.2 100 100 N N/A 30.15 1021 8 13 N/A
4:11 am 04:11 Clear with Mist and Fog 28 -2.2 27 -2.8 96 96 N N/A 30.16 1021 2 3 N/A
4:20 am 04:20 Clear with Mist and Fog 27 -2.8 27 -2.8 100 100 N N/A 30.16 1021 5 8 N/A
4:53 am 04:53 Clear 29 -1.7 29 -1.7 100 100 N N/A 30.14 1021 8 13 N/A
5:53 am 05:53 Clear 30 -1.1 30 -1.1 100 100 N N/A 30.14 1021 10 16 N/A
6:53 am 06:53 Clear 30 -1.1 30 -1.1 100 100 N N/A 30.15 1021 10 16 N/A
7:53 am 07:53 Cloudy 32 undefined 31 -0.6 96 96 N N/A 30.16 1021 10 16 N/A
8:17 am 08:17 Cloudy with Light Freezing Rain 32 undefined 32 undefined 100 100 N N/A 30.18 1022 8 13 0.00 0.00
8:46 am 08:46 Cloudy with Light Rain 33 0.6 33 0.6 100 100 NNE 3 6 30.17 1022 6 10 0.00 0.00
8:53 am 08:53 Cloudy with Light Rain 33 0.6 33 0.6 100 100 N N/A 30.15 1021 6 10 0.01 0.25
9:53 am 09:53 Cloudy with Light Rain 36 2.2 36 2.2 100 100 N N/A 30.14 1021 6 10 0.01 0.25
10:53 am 10:53 Cloudy 37 2.8 37 2.8 100 100 SSW 3 6 30.12 1020 8 13 0.00 0.00
11:53 am 11:53 Cloudy with Light Rain 40 4.4 40 4.4 100 100 N N/A 30.07 1018 6 10 0.02 0.51
12:53 pm 12:53 Cloudy 43 6.1 43 6.1 100 100 N N/A 30.01 1016 8 13 0.00 0.00
1:53 pm 13:53 Partly Cloudy 46 7.8 45 7.2 96 96 N N/A 29.95 1014 8 13 N/A
2:53 pm 14:53 Mostly Cloudy 49 9.4 44 6.7 83 83 S 5 7 29.93 1013 10 16 N/A
3:53 pm 15:53 Cloudy 50 10 46 7.8 86 86 SW 5 7 29.91 1013 10 16 N/A
4:53 pm 16:53 Cloudy 49 9.4 46 7.8 90 90 SSW 3 6 29.90 1013 10 16 N/A
5:53 pm 17:53 Cloudy 49 9.4 47 8.3 93 93 WSW 5 7 29.92 1013 10 16 0.00 0.00
6:53 pm 18:53 Cloudy 47 8.3 47 8.3 100 100 SSW 5 7 29.93 1014 10 16 0.00 0.00
7:53 pm 19:53 Mostly Clear 47 8.3 45 7.2 93 93 SW 7 11 29.94 1014 10 16 N/A
8:53 pm 20:53 Partly Cloudy 47 8.3 46 7.8 97 97 SW 8 13 29.95 1014 10 16 N/A
9:53 pm 21:53 Cloudy 48 8.9 47 8.3 96 96 SSW 5 7 29.93 1014 10 16 N/A
10:44 pm 22:44 Cloudy 47 8.3 46 7.8 97 97 N N/A 29.94 1014 10 16 N/A
10:53 pm 22:53 Cloudy 47 8.3 47 8.3 100 100 N N/A 29.93 1014 10 16 N/A
11:53 pm 23:53 Cloudy 48 8.9 48 8.9 100 100 SSW 5 7 29.93 1014 10 16 N/A

Powered by AerisWeather